IRIDIUM 44 [-] (25078 NORAD) Tracking and Keplerian Element Data

This shows tracking and keplerian element data for the satellite.

Feedback or suggestion? Click here.




ElementValue
Catalog25078
NameIRIDIUM 44 [-]
Epoch Orbit10203
Epoch Day348.90475792
Epoch Year2018
RAAN141.9624
Inclination86.3958
Eccentricity3.07E-05
Argument of Perigee56.2026
Mean Anonmoly303.9202
Mean Motion14.38220994
Decay Rate1.17E-06
L11 25078U 97077B 18348.90475792 .00000117 00000-0 31843-4 0 9991
L22 25078 86.3958 141.9624 0000307 56.2026 303.9202 14.38220994102038

Live tracking and technical data element details for IRIDIUM 44 [-] (NORAD 25078). IRIDIUM 44 [-] can be tracked NOW for your location showing map with azimuth and elevation plus other details from your city location.

Track the satellite on the map from your city or location and see movement details for azimuth, elevation, latitude, longitude, range, height, and movement on the map or in text.







IsCatalogInMostPopularTable: catalog: 25078, numindb: 55
Update: records affected: 1



GetName: 25078 IRIDIUM 44 [-]

Hit Count: updated at: Sat, 15 Dec 2018 19:08:10 GMT